Weather History for KPPQ - October, 2012

Change the Weather History Date:

Tuesday, October 9, 2012

  Actual Average (KUIN) Record (KUIN)
Temperature  
Mean Temperature 54 °F 57 °F  
Max Temperature 68 °F 68 °F 89 °F (1938)
Min Temperature 41 °F 46 °F 27 °F (2000)
Degree Days  
Heating Degree Days 11 9  
Month to date heating degree days 70  
Since 1 July heating degree days 157  
Cooling Degree Days 0 1  
Month to date cooling degree days 10  
Year to date cooling degree days 1086  
Growing Degree Days 4 (Base 50)    
Moisture  
Dew Point 41 °F    
Average Humidity 64    
Maximum Humidity 90    
Minimum Humidity 37    
Precipitation  
Precipitation 0.05 in 0.09 in 0.70 in (1941)
Month to date precipitation 0.91  
Year to date precipitation 29.96  
Sea Level Pressure  
Sea Level Pressure 29.98 in    
Wind  
Wind Speed 8 mph (SSW)    
Max Wind Speed 18 mph    
Max Gust Speed 32 mph    
Visibility 10 miles    
Events Rain    
T = Trace of Precipitation, MM = Missing Value Source: NWS Daily Summary

Daily Weather History Graph

Daily Weather History Graph

Search for Another Location

Airport or City:

Trip Planner

Search our weather history database for the weather conditions in past years. The results will help you decide how hot, cold, wet, or windy it might be!

Date:

Astronomy

Oct. 09, 2012 Rise Set
Actual Time 7:07 AM CDT 6:32 PM CDT
Civil Twilight 6:40 AM CDT 6:59 PM CDT
Nautical Twilight 6:09 AM CDT 7:30 PM CDT
Astronomical Twilight 5:38 AM CDT 8:01 PM CDT
Moon 12:45 AM CDT (10/9) 2:58 PM CDT (10/9)
Length of Visible Light 12h 18m
Length of Day
11h 24m
Last Quarter, 36% of the Moon is Illuminated
Oct 9
Last Quarter
Oct 15
New
Oct 21
First Quarter
Oct 29
Full
Nov 6
Last Quarter

Hourly Weather History & Observations

Time (CDT) Temp. Windchill Dew Point Humidity Pressure Visibility Wind Dir Wind Speed Gust Speed Precip Events Conditions
12:15 AM 46.0 °F 42.5 °F 36.0 °F 68% 30.04 in 10.0 mi South 6.9 mph - N/A   Clear
12:35 AM 46.4 °F 42.9 °F 35.6 °F 66% 30.03 in 10.0 mi South 6.9 mph - N/A   Clear
12:55 AM 45.5 °F 41.8 °F 36.5 °F 71% 30.03 in 10.0 mi South 6.9 mph - N/A   Clear
1:15 AM 45.7 °F 42.0 °F 36.5 °F 70% 30.03 in 10.0 mi South 6.9 mph - N/A   Clear
1:35 AM 46.4 °F 42.4 °F 37.4 °F 71% 30.03 in 10.0 mi South 8.1 mph - N/A   Clear
1:55 AM 45.7 °F 42.0 °F 36.7 °F 71% 30.03 in 10.0 mi South 6.9 mph - N/A   Clear
2:35 AM 46.2 °F 42.7 °F 37.0 °F 70% 30.03 in 10.0 mi South 6.9 mph - N/A   Clear
2:55 AM 46.4 °F 42.9 °F 37.4 °F 71% 30.02 in 10.0 mi South 6.9 mph - N/A   Clear
3:15 AM 45.5 °F 42.5 °F 37.4 °F 73% 30.01 in 10.0 mi South 5.8 mph - N/A   Clear
3:35 AM 44.4 °F 40.5 °F 37.4 °F 76% 30.01 in 10.0 mi South 6.9 mph - N/A   Clear
3:55 AM 44.6 °F 40.7 °F 37.4 °F 76% 30.01 in 10.0 mi South 6.9 mph - N/A   Clear
4:15 AM 43.7 °F 40.3 °F 37.4 °F 78% 30.01 in 10.0 mi South 5.8 mph - N/A   Clear
4:35 AM 42.8 °F 38.6 °F 37.4 °F 81% 30.01 in 10.0 mi South 6.9 mph - N/A   Clear
4:55 AM 43.5 °F 38.9 °F 37.8 °F 80% 30.01 in 10.0 mi South 8.1 mph - N/A   Clear
5:15 AM 43.7 °F 39.7 °F 37.9 °F 80% 30.01 in 10.0 mi South 6.9 mph - N/A   Clear
5:35 AM 43.2 °F 39.0 °F 37.9 °F 82% 30.01 in 10.0 mi South 6.9 mph - N/A   Clear
5:55 AM 43.3 °F 39.2 °F 38.3 °F 82% 30.01 in 10.0 mi South 6.9 mph - N/A   Clear
6:15 AM 43.3 °F 39.2 °F 38.3 °F 82% 30.02 in 10.0 mi South 6.9 mph - N/A   Clear
6:35 AM 42.3 °F 38.6 °F 37.8 °F 84% 30.02 in 10.0 mi South 5.8 mph - N/A   Clear
6:55 AM 41.9 °F 37.5 °F 37.9 °F 86% 30.02 in 10.0 mi South 6.9 mph - N/A   Clear
7:15 AM 42.1 °F 38.4 °F 38.3 °F 86% 30.02 in 10.0 mi South 5.8 mph - N/A   Clear
7:35 AM 42.8 °F 39.3 °F 38.5 °F 85% 30.02 in 10.0 mi South 5.8 mph - N/A   Clear
7:55 AM 44.1 °F 40.8 °F 39.2 °F 83% 30.02 in 10.0 mi South 5.8 mph - N/A   Clear
8:15 AM 45.5 °F 41.8 °F 39.7 °F 80% 30.02 in 10.0 mi South 6.9 mph - N/A   Clear
8:35 AM 47.5 °F - 40.6 °F 77% 30.01 in 10.0 mi South 6.9 mph - N/A   Clear
8:55 AM 49.5 °F - 41.2 °F 73% 30.02 in 10.0 mi South 11.5 mph - N/A   Clear
9:15 AM 50.9 °F - 41.5 °F 70% 30.01 in 10.0 mi South 9.2 mph - N/A   Clear
9:35 AM 52.0 °F - 41.7 °F 68% 30.01 in 10.0 mi SSW 9.2 mph 16.1 mph N/A   Clear
9:55 AM 53.4 °F - 42.1 °F 65% 30.01 in 10.0 mi SSW 11.5 mph 18.4 mph N/A   Clear
10:15 AM 54.7 °F - 42.3 °F 63% 30.01 in 10.0 mi SSW 11.5 mph - N/A   Clear
10:35 AM 55.9 °F - 42.3 °F 60% 30.01 in 10.0 mi SSW 10.4 mph 16.1 mph N/A   Clear
10:55 AM 57.9 °F - 42.8 °F 57% 30.00 in 10.0 mi SSW 9.2 mph - N/A   Clear
11:15 AM 59.4 °F - 42.3 °F 53% 30.00 in 10.0 mi SW 12.7 mph 16.1 mph N/A   Clear
11:35 AM 60.8 °F - 42.4 °F 51% 29.99 in 10.0 mi SSW 12.7 mph 18.4 mph N/A   Clear
11:55 AM 62.1 °F - 42.6 °F 49% 29.98 in 10.0 mi SSW 10.4 mph - N/A   Clear
12:15 PM 63.3 °F - 41.5 °F 45% 29.97 in 10.0 mi SSW 12.7 mph - N/A   Clear
12:35 PM 63.5 °F - 41.5 °F 45% 29.96 in 10.0 mi SSW 12.7 mph - N/A   Clear
12:55 PM 64.4 °F - 40.5 °F 41% 29.95 in 10.0 mi SW 15.0 mph 23.0 mph N/A   Clear
1:15 PM 64.6 °F - 40.6 °F 42% 29.94 in 10.0 mi SW 12.7 mph 21.9 mph N/A   Clear
1:35 PM 65.7 °F - 41.4 °F 41% 29.92 in 10.0 mi SSW 11.5 mph 19.6 mph N/A   Clear
1:55 PM 66.7 °F - 41.4 °F 40% 29.91 in 10.0 mi SW 16.1 mph 21.9 mph N/A   Clear
2:15 PM 66.6 °F - 41.0 °F 39% 29.91 in 10.0 mi South 17.3 mph 20.7 mph N/A   Clear
2:35 PM 66.9 °F - 41.2 °F 39% 29.91 in 10.0 mi SSW 16.1 mph 21.9 mph N/A   Clear
2:55 PM 67.1 °F - 41.2 °F 39% 29.91 in 10.0 mi SW 13.8 mph 23.0 mph N/A   Clear
3:15 PM 67.3 °F - 40.8 °F 38% 29.90 in 10.0 mi SSW 9.2 mph 18.4 mph N/A   Clear
3:35 PM 67.6 °F - 40.6 °F 37% 29.90 in 10.0 mi SSW 10.4 mph 18.4 mph N/A   Clear
3:55 PM 67.8 °F - 41.5 °F 38% 29.90 in 10.0 mi SW 15.0 mph 21.9 mph N/A   Clear
4:15 PM 66.9 °F - 40.8 °F 39% 29.90 in 10.0 mi SW 12.7 mph - N/A   Clear
4:35 PM 66.9 °F - 41.0 °F 39% 29.90 in 10.0 mi SW 13.8 mph 18.4 mph N/A   Scattered Clouds
4:55 PM 67.5 °F - 42.1 °F 40% 29.90 in 10.0 mi SW 8.1 mph - N/A   Mostly Cloudy
5:15 PM 66.7 °F - 41.5 °F 40% 29.90 in 10.0 mi SW 10.4 mph 16.1 mph N/A   Scattered Clouds
5:35 PM 65.8 °F - 41.7 °F 41% 29.90 in 10.0 mi SW 10.4 mph - N/A   Scattered Clouds
5:55 PM 65.3 °F - 42.8 °F 44% 29.90 in 10.0 mi SW 6.9 mph - N/A   Mostly Cloudy
6:15 PM 64.6 °F - 42.8 °F 45% 29.89 in 10.0 mi SSW 6.9 mph - N/A   Mostly Cloudy
6:35 PM 63.7 °F - 42.3 °F 46% 29.89 in 10.0 mi SSW 6.9 mph - N/A   Scattered Clouds
6:55 PM 62.2 °F - 42.4 °F 48% 29.89 in 10.0 mi SSW 3.5 mph - N/A   Clear
7:15 PM 62.4 °F - 42.8 °F 49% 29.90 in 10.0 mi Calm Calm - N/A   Mostly Cloudy
7:35 PM 61.7 °F - 43.2 °F 51% 29.90 in 10.0 mi Calm Calm - N/A   Overcast
7:55 PM 61.7 °F - 43.9 °F 52% 29.91 in 10.0 mi WSW 4.6 mph - N/A   Overcast
8:15 PM 55.2 °F - 43.9 °F 66% 29.94 in 10.0 mi NNW 18.4 mph 32.2 mph N/A Rain Light Rain
8:35 PM 53.2 °F - 43.7 °F 70% 29.96 in 10.0 mi NNW 15.0 mph 29.9 mph N/A Rain Rain
8:55 PM 50.9 °F - 44.1 °F 77% 29.99 in 10.0 mi NNW 12.7 mph 20.7 mph N/A   Light Drizzle
9:15 PM 49.6 °F - 44.8 °F 83% 30.00 in 10.0 mi NNW 11.5 mph - N/A Rain Light Rain
9:35 PM 48.4 °F - 44.1 °F 85% 30.02 in 10.0 mi NNW 11.5 mph 17.3 mph N/A   Drizzle
9:55 PM 47.8 °F - 44.6 °F 89% 30.03 in 10.0 mi NW 9.2 mph - N/A Rain Light Rain
10:15 PM 46.6 °F - 43.2 °F 88% 30.04 in 7.0 mi NW 12.7 mph - 0.02 in Rain Rain
10:35 PM 46.4 °F 42.9 °F 43.3 °F 89% 30.04 in 10.0 mi NNW 6.9 mph - 0.04 in Rain Rain
10:55 PM 46.0 °F 43.9 °F 43.2 °F 90% 30.05 in 10.0 mi NW 4.6 mph - 0.05 in Rain Light Rain
11:15 PM 46.2 °F 45.0 °F 43.5 °F 90% 30.05 in 10.0 mi NW 3.5 mph - N/A   Light Drizzle
11:35 PM 46.4 °F 45.2 °F 43.5 °F 90% 30.05 in 10.0 mi WNW 3.5 mph - N/A Rain Light Rain
11:55 PM 45.7 °F 43.4 °F 43.0 °F 90% 30.05 in 10.0 mi West 4.6 mph - N/A   Mostly Cloudy